Find Local Weather

World > North America > United States > Michigan

Detroit, Michigan Regional Weather

Lat: 42.33N, Lon: 83.05W
Wx Zone: MIZ076
Feedback
Expires:201804230100;;353491
ASUS43 KDTX 230010
RWRMI 
MICHIGAN HOURLY REGIONAL WEATHER ROUNDUP
NATIONAL WEATHER SERVICE DETROIT/PONTIAC MI
800 PM EDT SUN APR 22 2018

NOTE: "FAIR" INDICATES FEW OR NO CLOUDS BELOW 12,000 FEET WITH NO
SIGNIFICANT WEATHER AND/OR OBSTRUCTION TO VISIBILITY.


MIZ047>049-052>055-059>063-066>070-074>076-081>083-230100-
SOUTHEAST LOWER MICHIGAN
  
CITY           SKY/WX    TMP DP  RH WIND       PRES   REMARKS
ADRIAN         FAIR      53  21  28 SE12      30.31S                  
6HR MIN TEMP:  53; 6HR MAX TEMP:  60;                                

ALMA           FAIR      56  31  39 NE9       30.32S                  
6HR MIN TEMP:  56; 6HR MAX TEMP:  63;                                

ANN ARBOR      FAIR      56  19  23 E8        30.31S                  
BAD AXE        FAIR      57  14  18 E6        30.36S                  
6HR MIN TEMP:  57; 6HR MAX TEMP:  62;                                

CARO           FAIR      56  19  23 E6        30.33S                  
DETROIT CITY   FAIR      56  24  29 E10       30.32S                  
6HR MIN TEMP:  56; 6HR MAX TEMP:  60;                                

DETROIT        FAIR      58  23  26 E9        30.32S                  
6HR MIN TEMP:  58; 6HR MAX TEMP:  62;                                

FLINT          FAIR      57  27  31 E10       30.31F                  
6HR MIN TEMP:  57; 6HR MAX TEMP:  63;                                

GROSSE ILE     FAIR      54  25  32 E6        30.30F                  
6HR MIN TEMP:  54; 6HR MAX TEMP:  61;                                

HILLSDALE      FAIR      54  23  30 E10       30.29R                  
HOWELL         FAIR      57  21  24 E7        30.30F                  
6HR MIN TEMP:  57; 6HR MAX TEMP:  62;                                


CITY           SKY/WX    TMP DP  RH WIND       PRES   REMARKS
JACKSON        FAIR      57  23  26 E8        30.30R                  
6HR MIN TEMP:  57; 6HR MAX TEMP:  63;                                

LAMBERTVILLE   FAIR      53  19  27 E12G17    30.30F                  
6HR MIN TEMP:  53; 6HR MAX TEMP:  59;                                

LANSING        FAIR      59  24  26 E8        30.30F                  
6HR MIN TEMP:  59; 6HR MAX TEMP:  64;                                

LAPEER         FAIR      56  24  28 E6        30.33S                  
6HR MIN TEMP:  56; 6HR MAX TEMP:  60;                                

MASON          FAIR      59  13  16 E5        30.30S                  
6HR MIN TEMP:  59; 6HR MAX TEMP:  64;                                

MONROE         FAIR      52  19  28 E8        30.30F                  
6HR MIN TEMP:  52; 6HR MAX TEMP:  58;                                

MT. CLEMENS    PTCLDY    55  27  34 E3        30.33F                  
6HR MIN TEMP:  55; 6HR MAX TEMP:  60;                                

PONTIAC        MOCLDY    58  24  27 E8        30.30F                  
6HR MIN TEMP:  57; 6HR MAX TEMP:  61;                                

PORT HOPE        N/A     41  31  67 SE6       30.36S                  
6HR MIN TEMP:  41; 6HR MAX TEMP:  48;                                

PORT HURON     FAIR      48  23  37 NE8       30.36R                  
TRI CITIES     FAIR      52  33  48 NE10      30.34S                  
6HR MIN TEMP:  52; 6HR MAX TEMP:  62;                                

MIDLAND        FAIR      53  30  42 E5        30.33F                  
6HR MIN TEMP:  53; 6HR MAX TEMP:  60;                                

TROY           FAIR      59  20  22 E6        30.34S                  
SAGINAW HB     FAIR      52  32  46 N9        30.33S                  
$$

SKY/WX - Weather  TMP - Temperature  DP - Dewpoint  RH - Relative Humidity
WIND - Wind Direction/Speed PRES - Barometric Pressure